Time,TemperatureF,DewpointF,PressureIn,WindDirection,WindDirectionDegrees,WindSpeedMPH,WindSpeedGustMPH,Humidity,HourlyPrecipIn,Conditions,Clouds,dailyrainin,SoftwareType,DateUTC
2013-01-28 00:00:00,31.6,31.6,28.85,North,0,0.0,0.0,100,0.00,,---,0.00,VWS V14.01,2013-01-28 06:00:00,
2013-01-28 00:06:00,31.6,31.6,28.85,East,95,0.0,0.0,100,0.00,,---,0.00,VWS V14.01,2013-01-28 06:06:00,
2013-01-28 00:12:00,31.6,31.6,28.85,ENE,63,0.0,0.0,100,0.00,,---,0.00,VWS V14.01,2013-01-28 06:12:00,
2013-01-28 00:17:00,31.6,31.6,28.85,ENE,63,0.0,0.0,100,0.00,,---,0.00,VWS V14.01,2013-01-28 06:17:00,
2013-01-28 00:23:00,31.6,31.6,28.85,ENE,63,0.0,0.0,100,0.00,,---,0.00,VWS V14.01,2013-01-28 06:23:00,
2013-01-28 00:28:00,31.6,31.6,28.85,East,81,2.2,2.2,100,0.00,,---,0.00,VWS V14.01,2013-01-28 06:28:00,
2013-01-28 00:34:00,31.6,31.6,28.85,East,81,0.0,0.0,100,0.00,,---,0.00,VWS V14.01,2013-01-28 06:34:00,
2013-01-28 00:40:00,31.6,31.6,28.85,East,81,0.0,0.0,100,0.00,,---,0.00,VWS V14.01,2013-01-28 06:40:00,
2013-01-28 00:45:00,31.6,31.6,28.85,East,81,0.0,0.0,100,0.00,,---,0.00,VWS V14.01,2013-01-28 06:45:00,
2013-01-28 00:51:00,31.6,31.6,28.85,East,81,0.0,0.0,100,0.00,,---,0.00,VWS V14.01,2013-01-28 06:51:00,
2013-01-28 00:56:00,31.6,31.6,28.85,East,81,0.0,2.2,100,0.00,,---,0.00,VWS V14.01,2013-01-28 06:56:00,
2013-01-28 01:02:00,31.6,31.6,28.82,East,81,0.0,2.2,100,0.00,,---,0.00,VWS V14.01,2013-01-28 07:02:00,
2013-01-28 01:08:00,31.6,31.6,28.82,SSE,161,0.0,2.7,100,0.00,,---,0.00,VWS V14.01,2013-01-28 07:08:00,
2013-01-28 01:13:00,31.6,31.6,28.82,SSE,161,0.0,0.0,100,0.00,,---,0.00,VWS V14.01,2013-01-28 07:13:00,
2013-01-28 01:18:00,31.6,31.6,28.82,SSE,162,0.0,0.0,100,0.00,,---,0.00,VWS V14.01,2013-01-28 07:18:00,
2013-01-28 01:24:00,31.6,31.6,28.82,NE,56,0.0,0.0,100,0.00,,---,0.00,VWS V14.01,2013-01-28 07:24:00,
2013-01-28 01:30:00,31.6,31.6,28.82,East,79,0.0,0.0,100,0.00,,---,0.00,VWS V14.01,2013-01-28 07:30:00,
2013-01-28 01:36:00,31.6,31.6,28.82,East,79,0.0,2.2,100,0.00,,---,0.00,VWS V14.01,2013-01-28 07:36:00,
2013-01-28 01:41:00,31.6,31.6,28.82,ESE,109,0.0,0.0,100,0.00,,---,0.00,VWS V14.01,2013-01-28 07:41:00,
2013-01-28 01:47:00,31.6,31.6,28.82,East,100,0.0,0.0,100,0.00,,---,0.00,VWS V14.01,2013-01-28 07:47:00,
2013-01-28 01:52:00,31.6,31.6,28.82,East,100,0.0,0.0,100,0.00,,---,0.00,VWS V14.01,2013-01-28 07:52:00,
2013-01-28 01:58:00,31.6,31.6,28.82,ESE,118,0.0,0.0,100,0.00,,---,0.00,VWS V14.01,2013-01-28 07:58:00,
2013-01-28 02:03:00,31.6,31.6,28.79,ESE,118,0.0,0.0,100,0.00,,---,0.00,VWS V14.01,2013-01-28 08:03:00,
2013-01-28 02:08:00,31.6,31.6,28.79,SSW,194,0.0,0.0,100,0.00,,---,0.00,VWS V14.01,2013-01-28 08:08:00,
2013-01-28 02:14:00,31.6,31.6,28.82,SSW,194,0.0,0.0,100,0.00,,---,0.00,VWS V14.01,2013-01-28 08:14:00,
2013-01-28 02:19:00,31.6,31.6,28.82,SSW,194,0.0,0.0,100,0.00,,---,0.00,VWS V14.01,2013-01-28 08:19:00,
2013-01-28 02:25:00,31.6,31.6,28.82,ESE,109,0.0,0.0,100,0.00,,---,0.00,VWS V14.01,2013-01-28 08:25:00,
2013-01-28 02:30:00,31.6,31.6,28.82,ESE,109,0.0,0.0,100,0.00,,---,0.00,VWS V14.01,2013-01-28 08:30:00,
2013-01-28 02:36:00,31.6,31.6,28.82,ESE,109,0.0,0.0,100,0.00,,---,0.00,VWS V14.01,2013-01-28 08:36:00,
2013-01-28 02:41:00,31.6,31.6,28.82,ESE,109,0.0,0.0,100,0.00,,---,0.00,VWS V14.01,2013-01-28 08:41:00,
2013-01-28 02:47:00,31.6,31.6,28.82,ESE,109,0.0,0.0,100,0.00,,---,0.00,VWS V14.01,2013-01-28 08:47:00,
2013-01-28 02:52:00,31.6,31.6,28.82,ESE,109,0.0,0.0,100,0.00,,---,0.00,VWS V14.01,2013-01-28 08:52:00,
2013-01-28 02:58:00,31.6,31.6,28.82,ESE,109,0.0,0.0,100,0.00,,---,0.00,VWS V14.01,2013-01-28 08:58:00,
2013-01-28 03:03:00,31.6,31.6,28.79,ESE,109,0.0,0.0,100,0.00,,---,0.00,VWS V14.01,2013-01-28 09:03:00,
2013-01-28 03:08:00,31.6,31.6,28.79,ESE,109,0.0,0.0,100,0.00,,---,0.00,VWS V14.01,2013-01-28 09:08:00,
2013-01-28 03:14:00,31.6,31.6,28.79,ESE,109,0.0,0.0,100,0.00,,---,0.00,VWS V14.01,2013-01-28 09:14:00,
2013-01-28 03:19:00,31.6,31.6,28.79,ESE,109,0.0,0.0,100,0.00,,---,0.00,VWS V14.01,2013-01-28 09:19:00,
2013-01-28 03:25:00,31.6,31.6,28.79,ESE,109,0.0,0.0,100,0.00,,---,0.00,VWS V14.01,2013-01-28 09:25:00,
2013-01-28 03:30:00,31.6,31.6,28.79,ESE,109,0.0,0.0,100,0.00,,---,0.00,VWS V14.01,2013-01-28 09:30:00,
2013-01-28 03:36:00,31.6,31.6,28.79,ESE,109,0.0,0.0,100,0.00,,---,0.00,VWS V14.01,2013-01-28 09:36:00,
2013-01-28 03:41:00,31.6,31.6,28.79,ESE,109,0.0,0.0,100,0.00,,---,0.00,VWS V14.01,2013-01-28 09:41:00,
2013-01-28 03:46:00,31.6,31.6,28.79,ESE,109,0.0,0.0,100,0.00,,---,0.00,VWS V14.01,2013-01-28 09:46:00,
2013-01-28 03:52:00,31.6,31.6,28.79,ESE,109,0.0,0.0,100,0.00,,---,0.00,VWS V14.01,2013-01-28 09:52:00,
2013-01-28 03:57:00,31.6,31.6,28.79,ESE,109,0.0,0.0,100,0.00,,---,0.00,VWS V14.01,2013-01-28 09:57:00,
2013-01-28 04:03:00,31.6,31.6,28.79,ESE,109,0.0,0.0,100,0.00,,---,0.00,VWS V14.01,2013-01-28 10:03:00,
2013-01-28 04:08:00,31.6,31.6,28.79,ESE,109,0.0,0.0,100,0.00,,---,0.00,VWS V14.01,2013-01-28 10:08:00,
2013-01-28 04:13:00,31.6,31.6,28.79,ESE,109,0.0,0.0,100,0.00,,---,0.00,VWS V14.01,2013-01-28 10:13:00,
2013-01-28 04:19:00,31.6,31.6,28.79,ESE,109,0.0,0.0,100,0.00,,---,0.00,VWS V14.01,2013-01-28 10:19:00,
2013-01-28 04:24:00,31.6,31.6,28.79,ESE,109,0.0,0.0,100,0.00,,---,0.00,VWS V14.01,2013-01-28 10:24:00,
2013-01-28 04:30:00,31.6,31.6,28.79,ESE,109,0.0,0.0,100,0.00,,---,0.00,VWS V14.01,2013-01-28 10:30:00,
2013-01-28 04:36:00,31.6,31.6,28.79,ESE,109,0.0,0.0,100,0.00,,---,0.00,VWS V14.01,2013-01-28 10:36:00,
2013-01-28 04:41:00,31.8,31.8,28.79,ESE,109,0.0,0.0,100,0.00,,---,0.00,VWS V14.01,2013-01-28 10:41:00,
2013-01-28 04:47:00,31.8,31.8,28.79,ESE,109,0.0,0.0,100,0.00,,---,0.00,VWS V14.01,2013-01-28 10:47:00,
2013-01-28 04:53:00,31.8,31.8,28.79,ESE,109,0.0,0.0,100,0.00,,---,0.00,VWS V14.01,2013-01-28 10:53:00,
2013-01-28 04:59:00,31.8,31.8,28.79,ESE,109,0.0,0.0,100,0.00,,---,0.00,VWS V14.01,2013-01-28 10:59:00,
2013-01-28 05:04:00,31.8,31.8,28.79,ESE,109,0.0,0.0,100,0.00,,---,0.00,VWS V14.01,2013-01-28 11:04:00,
2013-01-28 05:09:00,31.8,31.8,28.79,ESE,109,0.0,0.0,100,0.00,,---,0.00,VWS V14.01,2013-01-28 11:09:00,
2013-01-28 05:15:00,31.8,31.8,28.79,ESE,109,2.2,2.2,100,0.00,,---,0.00,VWS V14.01,2013-01-28 11:15:00,
2013-01-28 05:21:00,31.6,31.6,28.79,ESE,109,0.0,0.0,100,0.00,,---,0.00,VWS V14.01,2013-01-28 11:21:00,
2013-01-28 05:26:00,31.8,31.8,28.79,ESE,109,0.0,0.0,100,0.00,,---,0.00,VWS V14.01,2013-01-28 11:26:00,
2013-01-28 05:32:00,31.8,31.8,28.79,ESE,109,0.0,0.0,100,0.00,,---,0.00,VWS V14.01,2013-01-28 11:32:00,
2013-01-28 05:37:00,31.8,31.8,28.79,ESE,109,0.0,0.0,100,0.00,,---,0.00,VWS V14.01,2013-01-28 11:37:00,
2013-01-28 05:42:00,31.8,31.8,28.79,WSW,252,2.2,2.7,100,0.00,,---,0.00,VWS V14.01,2013-01-28 11:42:00,
2013-01-28 05:48:00,31.8,31.8,28.79,NW,312,0.0,4.0,100,0.00,,---,0.00,VWS V14.01,2013-01-28 11:48:00,
2013-01-28 05:53:00,31.8,31.8,28.79,WNW,303,0.0,3.1,100,0.00,,---,0.00,VWS V14.01,2013-01-28 11:53:00,
2013-01-28 05:58:00,31.8,31.8,28.79,WNW,299,3.1,3.1,100,0.00,,---,0.00,VWS V14.01,2013-01-28 11:58:00,
2013-01-28 06:03:00,31.8,31.8,28.82,WNW,282,0.0,3.6,100,0.00,,---,0.00,VWS V14.01,2013-01-28 12:03:00,
2013-01-28 06:09:00,31.8,31.8,28.82,WNW,282,2.7,2.7,100,0.00,,---,0.00,VWS V14.01,2013-01-28 12:09:00,
2013-01-28 06:14:00,31.8,31.8,28.82,WNW,292,2.2,3.1,100,0.00,,---,0.00,VWS V14.01,2013-01-28 12:14:00,
2013-01-28 06:19:00,31.8,31.8,28.82,WNW,287,0.0,2.7,100,0.00,,---,0.00,VWS V14.01,2013-01-28 12:19:00,
2013-01-28 06:25:00,31.8,31.8,28.82,NW,314,2.2,3.6,100,0.00,,---,0.00,VWS V14.01,2013-01-28 12:25:00,
2013-01-28 06:31:00,31.8,31.8,28.82,NNW,327,2.7,2.7,100,0.00,,---,0.00,VWS V14.01,2013-01-28 12:31:00,
2013-01-28 06:36:00,32.0,32.0,28.82,NW,310,3.6,4.0,100,0.00,,---,0.00,VWS V14.01,2013-01-28 12:36:00,
2013-01-28 06:42:00,32.0,32.0,28.82,WNW,288,2.2,2.7,100,0.00,,---,0.00,VWS V14.01,2013-01-28 12:42:00,
2013-01-28 06:47:00,32.0,32.0,28.82,WNW,299,2.7,3.1,100,0.00,,---,0.00,VWS V14.01,2013-01-28 12:47:00,
2013-01-28 06:53:00,32.0,32.0,28.82,NW,314,2.7,4.9,100,0.00,,---,0.00,VWS V14.01,2013-01-28 12:53:00,
2013-01-28 06:59:00,32.0,32.0,28.82,NNW,327,5.4,5.4,100,0.00,,---,0.00,VWS V14.01,2013-01-28 12:59:00,
2013-01-28 07:05:00,32.0,32.0,28.82,NW,318,4.9,4.9,100,0.00,,---,0.00,VWS V14.01,2013-01-28 13:05:00,
2013-01-28 07:10:00,32.0,32.0,28.82,NW,308,4.0,4.9,100,0.00,,---,0.00,VWS V14.01,2013-01-28 13:10:00,
2013-01-28 07:15:00,32.2,32.2,28.82,NW,320,3.6,3.6,100,0.00,,---,0.00,VWS V14.01,2013-01-28 13:15:00,
2013-01-28 07:21:00,32.2,32.2,28.82,NNW,327,4.0,4.0,100,0.00,,---,0.00,VWS V14.01,2013-01-28 13:21:00,
2013-01-28 07:27:00,32.2,32.2,28.82,WNW,293,4.9,6.3,100,0.00,,---,0.00,VWS V14.01,2013-01-28 13:27:00,
2013-01-28 07:33:00,32.2,32.2,28.82,NNW,336,5.4,5.4,100,0.00,,---,0.00,VWS V14.01,2013-01-28 13:33:00,
2013-01-28 07:38:00,32.2,32.2,28.82,WNW,297,4.0,7.6,100,0.00,,---,0.00,VWS V14.01,2013-01-28 13:38:00,
2013-01-28 07:44:00,32.2,32.2,28.82,West,281,3.1,5.4,100,0.00,,---,0.00,VWS V14.01,2013-01-28 13:44:00,
2013-01-28 07:49:00,32.2,32.2,28.85,NW,313,3.1,3.6,100,0.00,,---,0.00,VWS V14.01,2013-01-28 13:49:00,
2013-01-28 07:55:00,32.2,32.2,28.85,West,262,3.1,4.9,100,0.00,,---,0.00,VWS V14.01,2013-01-28 13:55:00,
2013-01-28 08:01:00,32.2,32.2,28.85,WNW,286,3.6,3.6,100,0.00,,---,0.00,VWS V14.01,2013-01-28 14:01:00,
2013-01-28 08:06:00,32.2,32.2,28.85,WNW,295,2.7,6.3,100,0.00,,---,0.00,VWS V14.01,2013-01-28 14:06:00,
2013-01-28 08:11:00,32.2,32.2,28.85,NNW,342,4.9,4.9,100,0.00,,---,0.00,VWS V14.01,2013-01-28 14:11:00,
2013-01-28 08:16:00,32.4,32.4,28.85,WNW,292,4.0,4.0,100,0.00,,---,0.00,VWS V14.01,2013-01-28 14:16:00,
2013-01-28 08:21:00,32.5,32.5,28.85,NW,309,2.2,4.0,100,0.00,,---,0.00,VWS V14.01,2013-01-28 14:21:00,
2013-01-28 08:27:00,32.5,32.5,28.85,WNW,293,3.6,4.0,100,0.00,,---,0.00,VWS V14.01,2013-01-28 14:27:00,
2013-01-28 08:32:00,32.5,32.5,28.88,North,353,6.3,6.3,100,0.00,,---,0.00,VWS V14.01,2013-01-28 14:32:00,
2013-01-28 08:38:00,32.7,32.7,28.88,NW,320,5.8,5.8,100,0.00,,---,0.00,VWS V14.01,2013-01-28 14:38:00,
2013-01-28 08:44:00,32.7,32.7,28.88,NW,315,4.9,4.9,100,0.00,,---,0.00,VWS V14.01,2013-01-28 14:44:00,
2013-01-28 08:49:00,32.9,32.9,28.88,NW,318,3.1,4.5,100,0.00,,---,0.00,VWS V14.01,2013-01-28 14:49:00,
2013-01-28 08:55:00,32.7,32.7,28.88,NW,312,4.0,4.0,100,0.00,,---,0.00,VWS V14.01,2013-01-28 14:55:00,
2013-01-28 09:01:00,33.1,33.1,28.88,North,0,6.3,8.1,100,0.00,,---,0.00,VWS V14.01,2013-01-28 15:01:00,
2013-01-28 09:06:00,33.1,33.1,28.88,NNW,331,4.9,5.8,100,0.00,,---,0.00,VWS V14.01,2013-01-28 15:06:00,
2013-01-28 09:12:00,33.1,33.1,28.88,NW,309,4.0,5.8,100,0.00,,---,0.00,VWS V14.01,2013-01-28 15:12:00,
2013-01-28 09:17:00,33.1,33.1,28.88,NNW,332,2.7,8.1,100,0.00,,---,0.00,VWS V14.01,2013-01-28 15:17:00,
2013-01-28 09:23:00,33.3,33.3,28.88,WNW,282,4.9,4.9,100,0.00,,---,0.00,VWS V14.01,2013-01-28 15:23:00,
2013-01-28 09:28:00,33.3,33.3,28.88,North,4,8.1,8.1,100,0.00,,---,0.00,VWS V14.01,2013-01-28 15:28:00,
2013-01-28 09:34:00,33.6,33.6,28.88,NNE,18,8.3,8.3,100,0.00,,---,0.00,VWS V14.01,2013-01-28 15:34:00,
2013-01-28 09:40:00,33.6,33.6,28.88,WNW,299,5.8,5.8,100,0.00,,---,0.00,VWS V14.01,2013-01-28 15:40:00,
2013-01-28 09:46:00,33.8,33.8,28.88,NNW,329,3.6,6.3,100,0.00,,---,0.00,VWS V14.01,2013-01-28 15:46:00,
2013-01-28 09:51:00,33.8,33.8,28.88,NNW,331,3.1,4.9,100,0.00,,---,0.00,VWS V14.01,2013-01-28 15:51:00,
2013-01-28 09:56:00,34.0,34.0,28.88,NNW,327,6.3,6.3,100,0.00,,---,0.00,VWS V14.01,2013-01-28 15:56:00,
2013-01-28 10:01:00,34.0,34.0,28.88,NNW,348,5.8,5.8,100,0.00,,---,0.00,VWS V14.01,2013-01-28 16:01:00,
2013-01-28 10:06:00,34.2,33.7,28.88,NW,321,4.9,5.4,98,0.00,,---,0.00,VWS V14.01,2013-01-28 16:06:00,
2013-01-28 10:12:00,34.2,32.1,28.88,NNW,342,2.7,6.3,92,0.00,,---,0.00,VWS V14.01,2013-01-28 16:12:00,
2013-01-28 10:17:00,34.3,32.3,28.91,WNW,282,4.9,6.3,92,0.00,,---,0.00,VWS V14.01,2013-01-28 16:17:00,
2013-01-28 10:22:00,34.3,32.8,28.91,NNW,336,4.0,4.0,94,0.00,,---,0.00,VWS V14.01,2013-01-28 16:22:00,
2013-01-28 10:28:00,34.3,31.2,28.91,NNW,337,5.8,6.3,88,0.00,,---,0.00,VWS V14.01,2013-01-28 16:28:00,
2013-01-28 10:33:00,34.3,30.6,28.91,NNW,338,5.8,5.8,86,0.00,,---,0.00,VWS V14.01,2013-01-28 16:33:00,
2013-01-28 10:38:00,34.3,30.6,28.91,NW,312,4.0,4.0,86,0.00,,---,0.00,VWS V14.01,2013-01-28 16:38:00,
2013-01-28 10:44:00,34.3,30.0,28.91,NNW,337,5.8,11.9,84,0.00,,---,0.00,VWS V14.01,2013-01-28 16:44:00,
2013-01-28 10:50:00,34.2,29.8,28.91,WNW,289,4.0,6.7,84,0.00,,---,0.00,VWS V14.01,2013-01-28 16:50:00,
2013-01-28 10:55:00,34.3,30.0,28.91,North,0,3.6,5.4,84,0.00,,---,0.00,VWS V14.01,2013-01-28 16:55:00,
2013-01-28 11:00:00,34.5,30.8,28.91,NW,315,5.4,5.8,86,0.00,,---,0.00,VWS V14.01,2013-01-28 17:00:00,
2013-01-28 11:05:00,34.5,29.6,28.91,WNW,302,5.4,5.8,82,0.00,,---,0.00,VWS V14.01,2013-01-28 17:05:00,
2013-01-28 11:11:00,34.9,30.5,28.91,North,0,5.4,8.1,84,0.43,,---,0.43,VWS V14.01,2013-01-28 17:11:00,
2013-01-28 11:17:00,34.9,30.0,28.91,NNE,22,3.6,5.4,82,0.43,,---,0.43,VWS V14.01,2013-01-28 17:17:00,
2013-01-28 11:22:00,35.1,30.1,28.91,NNW,348,0.0,2.7,82,0.43,,---,0.43,VWS V14.01,2013-01-28 17:22:00,
2013-01-28 11:27:00,35.2,30.3,28.91,NNW,338,2.7,2.7,82,0.43,,---,0.43,VWS V14.01,2013-01-28 17:27:00,
2013-01-28 11:33:00,35.2,30.3,28.91,North,357,3.1,4.0,82,0.43,,---,0.43,VWS V14.01,2013-01-28 17:33:00,
2013-01-28 11:39:00,35.2,29.7,28.91,NNW,344,2.2,3.1,80,0.59,,---,0.59,VWS V14.01,2013-01-28 17:39:00,
2013-01-28 11:45:00,35.2,29.7,28.91,NW,320,3.1,3.1,80,0.59,,---,0.59,VWS V14.01,2013-01-28 17:45:00,
2013-01-28 11:50:00,35.2,29.7,28.91,West,262,2.7,4.0,80,0.59,,---,0.59,VWS V14.01,2013-01-28 17:50:00,
2013-01-28 11:55:00,34.9,34.9,28.91,NNW,341,3.6,3.6,100,0.59,,---,0.59,VWS V14.01,2013-01-28 17:55:00,
2013-01-28 12:00:00,35.1,35.1,28.91,North,353,3.6,3.6,100,0.59,,---,0.59,VWS V14.01,2013-01-28 18:00:00,
2013-01-28 12:06:00,35.2,35.2,28.91,WNW,299,2.7,2.7,100,0.59,,---,0.59,VWS V14.01,2013-01-28 18:06:00,
2013-01-28 12:11:00,35.4,35.4,28.91,WNW,299,3.6,3.6,100,0.59,,---,0.59,VWS V14.01,2013-01-28 18:11:00,
2013-01-28 12:16:00,35.6,35.6,28.91,NW,323,4.0,4.0,100,0.16,,---,0.59,VWS V14.01,2013-01-28 18:16:00,
2013-01-28 12:21:00,35.4,35.4,28.91,WNW,295,3.6,4.9,100,0.16,,---,0.59,VWS V14.01,2013-01-28 18:21:00,
2013-01-28 12:27:00,35.1,35.1,28.91,NW,322,5.8,5.8,100,0.16,,---,0.59,VWS V14.01,2013-01-28 18:27:00,
2013-01-28 12:32:00,35.1,35.1,28.91,WNW,299,4.0,4.0,100,0.16,,---,0.59,VWS V14.01,2013-01-28 18:32:00,
2013-01-28 12:37:00,35.1,35.1,28.91,West,281,7.2,7.2,100,0.16,,---,0.59,VWS V14.01,2013-01-28 18:37:00,
2013-01-28 12:42:00,34.7,34.7,28.91,WNW,291,3.1,3.6,100,0.00,,---,0.59,VWS V14.01,2013-01-28 18:42:00,
2013-01-28 12:48:00,34.7,34.7,28.91,WNW,298,4.9,4.9,100,0.00,,---,0.59,VWS V14.01,2013-01-28 18:48:00,
2013-01-28 12:53:00,34.5,34.5,28.91,NW,305,3.1,5.4,100,0.00,,---,0.59,VWS V14.01,2013-01-28 18:53:00,
2013-01-28 12:58:00,34.9,34.9,28.91,WNW,285,2.7,4.0,100,0.00,,---,0.59,VWS V14.01,2013-01-28 18:58:00,
2013-01-28 13:04:00,35.1,35.1,28.91,NNW,328,5.8,5.8,100,0.00,,---,0.59,VWS V14.01,2013-01-28 19:04:00,
2013-01-28 13:10:00,34.9,34.9,28.91,NW,314,3.6,5.8,100,0.00,,---,0.59,VWS V14.01,2013-01-28 19:10:00,
2013-01-28 13:15:00,35.2,35.2,28.91,WNW,287,3.1,4.0,100,0.00,,---,0.59,VWS V14.01,2013-01-28 19:15:00,
2013-01-28 13:21:00,35.1,35.1,28.91,WNW,296,4.5,4.9,100,0.00,,---,0.59,VWS V14.01,2013-01-28 19:21:00,
2013-01-28 13:26:00,35.2,35.2,28.91,WNW,293,5.4,5.4,100,0.04,,---,0.63,VWS V14.01,2013-01-28 19:26:00,
2013-01-28 13:32:00,35.4,35.4,28.91,North,349,4.9,5.8,100,0.04,,---,0.63,VWS V14.01,2013-01-28 19:32:00,
2013-01-28 13:38:00,35.4,35.4,28.91,North,7,3.1,4.9,100,0.04,,---,0.63,VWS V14.01,2013-01-28 19:38:00,
2013-01-28 13:43:00,35.4,35.4,28.91,West,267,4.0,4.0,100,0.04,,---,0.63,VWS V14.01,2013-01-28 19:43:00,
2013-01-28 13:49:00,35.4,35.4,28.88,NW,316,4.9,5.4,100,0.04,,---,0.63,VWS V14.01,2013-01-28 19:49:00,
2013-01-28 13:54:00,35.6,35.6,28.88,NNW,340,3.6,3.6,100,0.04,,---,0.63,VWS V14.01,2013-01-28 19:54:00,
2013-01-28 14:00:00,35.8,35.8,28.88,North,4,2.2,3.6,100,0.04,,---,0.63,VWS V14.01,2013-01-28 20:00:00,
2013-01-28 14:06:00,35.8,35.8,28.88,North,8,2.2,3.1,100,0.04,,---,0.63,VWS V14.01,2013-01-28 20:06:00,
2013-01-28 14:12:00,36.1,36.1,28.88,NNW,338,2.7,4.0,100,0.04,,---,0.63,VWS V14.01,2013-01-28 20:12:00,
2013-01-28 14:17:00,36.1,36.1,28.91,NNW,339,3.1,3.6,100,0.04,,---,0.63,VWS V14.01,2013-01-28 20:17:00,
2013-01-28 14:22:00,35.6,35.6,28.91,NW,305,0.0,2.2,100,0.04,,---,0.63,VWS V14.01,2013-01-28 20:22:00,
2013-01-28 14:28:00,35.6,35.6,28.91,NW,307,2.7,3.1,100,0.00,,---,0.63,VWS V14.01,2013-01-28 20:28:00,
2013-01-28 14:34:00,35.6,35.6,28.91,WSW,245,2.7,3.6,100,0.00,,---,0.63,VWS V14.01,2013-01-28 20:34:00,
2013-01-28 14:40:00,35.4,35.4,28.91,WNW,292,0.0,0.0,100,0.00,,---,0.63,VWS V14.01,2013-01-28 20:40:00,
2013-01-28 14:45:00,35.1,35.1,28.91,WSW,255,0.0,2.2,100,0.00,,---,0.63,VWS V14.01,2013-01-28 20:45:00,
2013-01-28 14:50:00,35.1,35.1,28.91,WSW,255,0.0,0.0,100,0.04,,---,0.67,VWS V14.01,2013-01-28 20:50:00,
2013-01-28 14:56:00,35.2,35.2,28.91,WNW,301,2.2,4.0,100,0.04,,---,0.67,VWS V14.01,2013-01-28 20:56:00,
2013-01-28 15:02:00,35.1,35.1,28.91,WNW,301,0.0,2.2,100,0.04,,---,0.67,VWS V14.01,2013-01-28 21:02:00,
2013-01-28 15:08:00,35.1,35.1,28.91,WNW,301,0.0,0.0,100,0.04,,---,0.67,VWS V14.01,2013-01-28 21:08:00,
2013-01-28 15:13:00,35.1,35.1,28.91,WNW,301,0.0,0.0,100,0.04,,---,0.67,VWS V14.01,2013-01-28 21:13:00,
2013-01-28 15:18:00,35.1,35.1,28.91,WNW,290,2.7,2.7,100,0.04,,---,0.67,VWS V14.01,2013-01-28 21:18:00,
2013-01-28 15:24:00,35.1,35.1,28.91,WNW,290,0.0,0.0,100,0.04,,---,0.67,VWS V14.01,2013-01-28 21:24:00,
2013-01-28 15:29:00,34.7,34.7,28.91,WNW,290,0.0,0.0,100,0.04,,---,0.67,VWS V14.01,2013-01-28 21:29:00,
2013-01-28 15:35:00,34.7,34.7,28.91,WNW,290,0.0,0.0,100,0.04,,---,0.67,VWS V14.01,2013-01-28 21:35:00,
2013-01-28 15:41:00,34.9,34.9,28.91,WNW,290,0.0,0.0,100,0.04,,---,0.67,VWS V14.01,2013-01-28 21:41:00,
2013-01-28 15:46:00,34.5,34.5,28.91,WNW,290,0.0,0.0,100,0.04,,---,0.67,VWS V14.01,2013-01-28 21:46:00,
2013-01-28 15:52:00,34.5,34.5,28.91,WNW,290,0.0,0.0,100,0.00,,---,0.67,VWS V14.01,2013-01-28 21:52:00,
2013-01-28 15:58:00,34.5,34.5,28.91,WNW,290,0.0,0.0,100,0.00,,---,0.67,VWS V14.01,2013-01-28 21:58:00,
2013-01-28 16:04:00,34.5,34.5,28.91,WNW,290,0.0,0.0,100,0.00,,---,0.67,VWS V14.01,2013-01-28 22:04:00,
2013-01-28 16:09:00,34.3,34.3,28.91,WNW,290,0.0,0.0,100,0.00,,---,0.67,VWS V14.01,2013-01-28 22:09:00,
2013-01-28 16:14:00,34.3,34.3,28.94,WNW,290,0.0,0.0,100,0.00,,---,0.67,VWS V14.01,2013-01-28 22:14:00,
2013-01-28 16:20:00,34.0,34.0,28.94,WNW,290,0.0,0.0,100,0.00,,---,0.67,VWS V14.01,2013-01-28 22:20:00,
2013-01-28 16:25:00,33.8,33.8,28.94,WNW,290,2.2,2.2,100,0.00,,---,0.67,VWS V14.01,2013-01-28 22:25:00,
2013-01-28 16:30:00,33.8,33.8,28.94,WNW,290,0.0,0.0,100,0.00,,---,0.67,VWS V14.01,2013-01-28 22:30:00,
2013-01-28 16:35:00,33.4,33.4,28.94,WNW,290,0.0,0.0,100,0.00,,---,0.67,VWS V14.01,2013-01-28 22:35:00,
2013-01-28 16:41:00,33.3,33.3,28.94,SSW,211,0.0,0.0,100,0.00,,---,0.67,VWS V14.01,2013-01-28 22:41:00,
2013-01-28 16:47:00,33.3,33.3,28.94,SSW,211,0.0,0.0,100,0.00,,---,0.67,VWS V14.01,2013-01-28 22:47:00,
2013-01-28 16:53:00,33.1,33.1,28.94,SSW,211,0.0,0.0,100,0.00,,---,0.67,VWS V14.01,2013-01-28 22:53:00,
2013-01-28 16:58:00,33.1,33.1,28.94,SSW,211,0.0,0.0,100,0.00,,---,0.67,VWS V14.01,2013-01-28 22:58:00,
2013-01-28 17:03:00,32.9,32.9,28.94,SSW,211,0.0,0.0,100,0.00,,---,0.67,VWS V14.01,2013-01-28 23:03:00,
2013-01-28 17:08:00,32.9,32.9,28.94,SW,214,0.0,0.0,100,0.00,,---,0.67,VWS V14.01,2013-01-28 23:08:00,
2013-01-28 17:14:00,32.7,32.7,28.94,SW,214,0.0,0.0,100,0.00,,---,0.67,VWS V14.01,2013-01-28 23:14:00,
2013-01-28 17:19:00,32.5,32.5,28.94,SW,215,0.0,0.0,100,0.00,,---,0.67,VWS V14.01,2013-01-28 23:19:00,
2013-01-28 17:24:00,32.5,32.5,28.94,SW,214,0.0,0.0,100,0.00,,---,0.67,VWS V14.01,2013-01-28 23:24:00,
2013-01-28 17:30:00,32.5,32.5,28.94,SW,214,0.0,0.0,100,0.00,,---,0.67,VWS V14.01,2013-01-28 23:30:00,
2013-01-28 17:36:00,32.5,32.5,28.94,SW,214,0.0,0.0,100,0.00,,---,0.67,VWS V14.01,2013-01-28 23:36:00,
2013-01-28 17:41:00,32.5,32.5,28.94,SW,214,0.0,0.0,100,0.00,,---,0.67,VWS V14.01,2013-01-28 23:41:00,
2013-01-28 17:46:00,32.4,32.4,28.94,SW,214,0.0,0.0,100,0.00,,---,0.67,VWS V14.01,2013-01-28 23:46:00,
2013-01-28 17:52:00,32.4,32.4,28.94,SW,214,0.0,0.0,100,0.00,,---,0.67,VWS V14.01,2013-01-28 23:52:00,
2013-01-28 17:57:00,32.4,32.4,28.94,SW,214,0.0,0.0,100,0.00,,---,0.67,VWS V14.01,2013-01-28 23:57:00,
2013-01-28 18:03:00,32.2,32.2,28.94,SW,214,0.0,0.0,100,0.00,,---,0.67,VWS V14.01,2013-01-29 00:03:00,
2013-01-28 18:08:00,32.2,32.2,28.94,SW,214,0.0,0.0,100,0.00,,---,0.67,VWS V14.01,2013-01-29 00:08:00,
2013-01-28 18:13:00,32.2,32.2,28.94,SW,214,0.0,0.0,100,0.00,,---,0.67,VWS V14.01,2013-01-29 00:13:00,
2013-01-28 18:19:00,32.2,32.2,28.94,SW,214,0.0,0.0,100,0.00,,---,0.67,VWS V14.01,2013-01-29 00:19:00,
2013-01-28 18:25:00,32.2,32.2,28.94,SW,214,0.0,0.0,100,0.00,,---,0.67,VWS V14.01,2013-01-29 00:25:00,
2013-01-28 18:31:00,32.2,32.2,28.94,SW,214,0.0,0.0,100,0.00,,---,0.67,VWS V14.01,2013-01-29 00:31:00,
2013-01-28 18:36:00,32.2,32.2,28.94,SW,214,0.0,0.0,100,0.00,,---,0.67,VWS V14.01,2013-01-29 00:36:00,
2013-01-28 18:41:00,32.2,32.2,28.94,SW,214,0.0,0.0,100,0.00,,---,0.67,VWS V14.01,2013-01-29 00:41:00,
2013-01-28 18:47:00,32.2,32.2,28.94,SW,214,0.0,0.0,100,0.00,,---,0.67,VWS V14.01,2013-01-29 00:47:00,
2013-01-28 18:52:00,32.2,32.2,28.94,SW,214,0.0,0.0,100,0.00,,---,0.67,VWS V14.01,2013-01-29 00:52:00,
2013-01-28 18:58:00,32.2,32.2,28.94,SW,214,0.0,0.0,100,0.00,,---,0.67,VWS V14.01,2013-01-29 00:58:00,
2013-01-28 19:04:00,31.8,31.8,28.94,SW,214,0.0,0.0,100,0.00,,---,0.67,VWS V14.01,2013-01-29 01:04:00,
2013-01-28 19:09:00,32.0,32.0,28.94,SW,214,0.0,0.0,100,0.00,,---,0.67,VWS V14.01,2013-01-29 01:09:00,
2013-01-28 19:15:00,32.0,32.0,28.94,SW,214,0.0,0.0,100,0.00,,---,0.67,VWS V14.01,2013-01-29 01:15:00,
2013-01-28 19:21:00,32.0,32.0,28.94,SW,214,0.0,0.0,100,0.00,,---,0.67,VWS V14.01,2013-01-29 01:21:00,
2013-01-28 19:27:00,32.0,32.0,28.94,SW,214,0.0,0.0,100,0.00,,---,0.67,VWS V14.01,2013-01-29 01:27:00,
2013-01-28 19:32:00,32.0,32.0,28.91,SW,214,0.0,0.0,100,0.00,,---,0.67,VWS V14.01,2013-01-29 01:32:00,
2013-01-28 19:37:00,32.0,32.0,28.91,SW,214,0.0,0.0,100,0.00,,---,0.67,VWS V14.01,2013-01-29 01:37:00,
2013-01-28 19:43:00,32.0,32.0,28.91,SW,214,0.0,0.0,100,0.00,,---,0.67,VWS V14.01,2013-01-29 01:43:00,
2013-01-28 19:49:00,32.0,32.0,28.91,SW,214,0.0,0.0,100,0.00,,---,0.67,VWS V14.01,2013-01-29 01:49:00,
2013-01-28 19:54:00,32.0,32.0,28.91,SW,214,0.0,0.0,100,0.00,,---,0.67,VWS V14.01,2013-01-29 01:54:00,
2013-01-28 20:00:00,32.0,32.0,28.91,SW,214,0.0,0.0,100,0.00,,---,0.67,VWS V14.01,2013-01-29 02:00:00,
2013-01-28 20:05:00,32.0,32.0,28.91,SW,214,0.0,0.0,100,0.00,,---,0.67,VWS V14.01,2013-01-29 02:05:00,
2013-01-28 20:11:00,32.0,32.0,28.91,SW,214,0.0,0.0,100,0.00,,---,0.67,VWS V14.01,2013-01-29 02:11:00,
2013-01-28 20:17:00,32.0,32.0,28.91,SW,214,0.0,0.0,100,0.00,,---,0.67,VWS V14.01,2013-01-29 02:17:00,
2013-01-28 20:23:00,31.8,31.8,28.91,SW,214,0.0,0.0,100,0.00,,---,0.67,VWS V14.01,2013-01-29 02:23:00,
2013-01-28 20:28:00,31.8,31.8,28.91,SW,214,0.0,0.0,100,0.00,,---,0.67,VWS V14.01,2013-01-29 02:28:00,
2013-01-28 20:33:00,31.8,31.8,28.91,SW,214,0.0,0.0,100,0.00,,---,0.67,VWS V14.01,2013-01-29 02:33:00,
2013-01-28 20:39:00,31.8,31.8,28.91,SW,214,0.0,0.0,100,0.00,,---,0.67,VWS V14.01,2013-01-29 02:39:00,
2013-01-28 20:44:00,31.8,31.8,28.91,SW,214,0.0,0.0,100,0.00,,---,0.67,VWS V14.01,2013-01-29 02:44:00,
2013-01-28 20:49:00,31.8,31.8,28.91,SW,214,0.0,0.0,100,0.00,,---,0.67,VWS V14.01,2013-01-29 02:49:00,
2013-01-28 20:54:00,31.8,31.8,28.91,SW,214,0.0,0.0,100,0.00,,---,0.67,VWS V14.01,2013-01-29 02:54:00,
2013-01-28 20:59:00,31.8,31.8,28.88,SW,214,0.0,0.0,100,0.00,,---,0.67,VWS V14.01,2013-01-29 02:59:00,
2013-01-28 21:05:00,31.8,31.8,28.88,SW,214,0.0,0.0,100,0.00,,---,0.67,VWS V14.01,2013-01-29 03:05:00,
2013-01-28 21:10:00,31.8,31.8,28.88,SW,214,0.0,0.0,100,0.00,,---,0.67,VWS V14.01,2013-01-29 03:10:00,
2013-01-28 21:15:00,31.6,31.6,28.91,SW,214,0.0,0.0,100,0.00,,---,0.67,VWS V14.01,2013-01-29 03:15:00,
2013-01-28 21:21:00,31.6,31.6,28.91,SW,214,0.0,0.0,100,0.00,,---,0.67,VWS V14.01,2013-01-29 03:21:00,
2013-01-28 21:27:00,31.6,31.6,28.91,SW,214,0.0,0.0,100,0.00,,---,0.67,VWS V14.01,2013-01-29 03:27:00,
2013-01-28 21:33:00,31.6,31.6,28.91,SW,214,0.0,0.0,100,0.00,,---,0.67,VWS V14.01,2013-01-29 03:33:00,
2013-01-28 21:38:00,31.6,31.6,28.91,SW,214,0.0,0.0,100,0.00,,---,0.67,VWS V14.01,2013-01-29 03:38:00,
2013-01-28 21:43:00,31.5,31.5,28.91,SW,214,0.0,0.0,100,0.00,,---,0.67,VWS V14.01,2013-01-29 03:43:00,
2013-01-28 21:49:00,31.5,31.5,28.91,SW,214,0.0,0.0,100,0.00,,---,0.67,VWS V14.01,2013-01-29 03:49:00,
2013-01-28 21:55:00,31.5,31.5,28.91,SW,214,0.0,0.0,100,0.00,,---,0.67,VWS V14.01,2013-01-29 03:55:00,
2013-01-28 22:00:00,31.5,31.5,28.91,SW,214,0.0,0.0,100,0.00,,---,0.67,VWS V14.01,2013-01-29 04:00:00,
2013-01-28 22:05:00,31.3,31.3,28.91,SW,214,0.0,0.0,100,0.00,,---,0.67,VWS V14.01,2013-01-29 04:05:00,
2013-01-28 22:11:00,31.3,31.3,28.91,SW,214,0.0,0.0,100,0.00,,---,0.67,VWS V14.01,2013-01-29 04:11:00,
2013-01-28 22:17:00,31.3,31.3,28.88,SW,214,0.0,0.0,100,0.00,,---,0.67,VWS V14.01,2013-01-29 04:17:00,
2013-01-28 22:23:00,31.1,31.1,28.88,SW,214,0.0,0.0,100,0.00,,---,0.67,VWS V14.01,2013-01-29 04:23:00,
2013-01-28 22:29:00,31.1,31.1,28.88,SW,214,0.0,0.0,100,0.00,,---,0.67,VWS V14.01,2013-01-29 04:29:00,
2013-01-28 22:34:00,31.1,31.1,28.88,SW,214,0.0,0.0,100,0.00,,---,0.67,VWS V14.01,2013-01-29 04:34:00,
2013-01-28 22:39:00,31.1,31.1,28.88,SW,214,0.0,0.0,100,0.00,,---,0.67,VWS V14.01,2013-01-29 04:39:00,
2013-01-28 22:45:00,31.1,31.1,28.85,SW,214,0.0,0.0,100,0.00,,---,0.67,VWS V14.01,2013-01-29 04:45:00,
2013-01-28 22:50:00,30.9,30.9,28.85,SW,214,0.0,0.0,100,0.00,,---,0.67,VWS V14.01,2013-01-29 04:50:00,
2013-01-28 22:56:00,30.9,30.9,28.85,SW,214,0.0,0.0,100,0.00,,---,0.67,VWS V14.01,2013-01-29 04:56:00,
2013-01-28 23:03:00,30.7,30.7,28.82,SW,214,0.0,0.0,100,0.00,,---,0.67,VWS V14.01,2013-01-29 05:03:00,
2013-01-28 23:04:00,30.7,30.7,28.82,SW,214,0.0,0.0,100,0.00,,---,0.67,VWS V14.01,2013-01-29 05:04:00,
2013-01-28 23:07:00,30.7,30.7,28.82,SW,214,0.0,0.0,100,0.00,,---,0.67,VWS V14.01,2013-01-29 05:07:00,
2013-01-28 23:11:00,30.7,30.7,28.82,SW,214,0.0,0.0,100,0.00,,---,0.67,VWS V14.01,2013-01-29 05:11:00,
2013-01-28 23:16:00,30.9,30.9,28.85,SW,214,0.0,0.0,100,0.00,,---,0.67,VWS V14.01,2013-01-29 05:16:00,
2013-01-28 23:21:00,30.9,30.9,28.85,SW,214,0.0,0.0,100,0.00,,---,0.67,VWS V14.01,2013-01-29 05:21:00,
2013-01-28 23:27:00,30.9,30.9,28.85,SW,214,0.0,0.0,100,0.00,,---,0.67,VWS V14.01,2013-01-29 05:27:00,
2013-01-28 23:32:00,30.9,30.9,28.82,SW,214,0.0,0.0,100,0.00,,---,0.67,VWS V14.01,2013-01-29 05:32:00,
2013-01-28 23:38:00,30.9,30.9,28.82,SW,214,0.0,0.0,100,0.00,,---,0.67,VWS V14.01,2013-01-29 05:38:00,
2013-01-28 23:43:00,30.9,30.9,28.82,SW,214,0.0,0.0,100,0.00,,---,0.67,VWS V14.01,2013-01-29 05:43:00,
2013-01-28 23:49:00,30.9,30.9,28.82,SW,214,0.0,0.0,100,0.00,,---,0.67,VWS V14.01,2013-01-29 05:49:00,
2013-01-28 23:55:00,31.1,31.1,28.82,SW,214,0.0,0.0,100,0.00,,---,0.67,VWS V14.01,2013-01-29 05:55:00,